Notices

What's New in latest Release from April 7th, 2021:

- Updated Glossary, including Speed of Maximum Gust, and Total Hourly Precipitation

- Updated national and regional climate services offices contacts and prices information

- Addition of station inventory lists for 1981-2010, 1971-2000, and 1961-1990 Normals.

If you haven't already, please take our survey and provide feedback about our website: https://eccc.sondage-survey.ca/f/LanguageSelection.aspx?s=442ca660-fcf1-47c0-95a9-59707d6fd709

Hourly Data Report for March 11, 2021

OTTAWA INTL A
ONTARIO
Current Station Operator: NAVCAN

45°19'00.000" N
75°40'00.000" W
114.90 m
6106001
71628
YOW

Download Data

Hourly Data (March 2021)
Hourly Data Report for March 11, 2021
TIME
LST
Temp Definition
°C
Dew Point Definition
°C
Rel Hum Definition
%
Precip. Amount Definition
mm

Wind Dir Definition
10's deg

Wind Spd Definition
km/h
Visibility Definition
km
Stn Press Definition
kPa
Hmdx Definition


Wind Chill Definition


Weather Definition


00:00 7.5 -1.2 54   17 17 24.1 100.44     LegendNANA
01:00 7.3 -1.0 55   17 14 24.1 100.39     Cloudy
02:00 7.1 -0.9 57   17 14 24.1 100.33     LegendNANA
03:00 7.4 -0.6 57   18 13 24.1 100.26     LegendNANA
04:00 8.0 -0.4 55   19 17 24.1 100.20     Mostly Cloudy
05:00 7.8 -0.5 56   18 18 24.1 100.19     LegendNANA
06:00 7.8 -0.5 56   17 17 24.1 100.14     LegendNANA
07:00 7.4 -0.6 57   17 15 24.1 100.10     Mostly Cloudy
08:00 7.9 -0.5 55   17 17 24.1 100.06     LegendNANA
09:00 9.5 -0.2 51   19 13 24.1 100.01     LegendNANA
10:00 11.0 0.2 47   19 17 24.1 99.93     Cloudy
11:00 11.3 0.4 47   20 30 24.1 99.80     LegendNANA
12:00 12.9 1.0 44   20 18 24.1 99.67     LegendNANA
13:00 13.7 2.4 46   20 32 24.1 99.56     Mostly Cloudy
14:00 13.7 3.4 49   20 36 24.1 99.44     LegendNANA
15:00 14.7 4.8 51   20 32 24.1 99.40     LegendNANA
16:00 13.4 4.9 56   20 27 24.1 99.38     Mostly Cloudy
17:00 13.2 5.7 60   20 35 24.1 99.29     LegendNANA
18:00 12.1 5.9 66   19 20 24.1 99.23     LegendNANA
19:00 12.7 6.0 63   19 27 24.1 99.13     Mainly Clear
20:00 10.9 7.5 79   24 31 12.9 99.22     Rain Showers
21:00 9.9 7.5 85   23 26 24.1 99.29     LegendNANA
22:00 8.7 -0.9 51   25 43 24.1 99.37     Clear
23:00 6.8 -2.2 52   26 43 24.1 99.47     LegendNANA

Notes on Data Quality.

Legend

  • E = Estimated
  • M = Missing
  • NA = Not Available*
  • [empty] = Indicates an unobserved value
Date modified: